Regional Weather Roundup
Issued by NWS

Home | Current Version | Previous Version | Text Only | Print | Product List | Glossary On
Versions: 1 2 3 4 5 6 7 8 9 10 11 12 13 14 15 16 17 18 19 20 21 22 23 24 25 26 27 28 29 30 31 32 33 34 35 36 37 38 39 40 41 42 43 44 45 46 47 48 49 50
000
ASUS43 KMPX 291101
RWRMN
WEATHER ROUNDUP FOR MINNESOTA
NATIONAL WEATHER SERVICE TWIN CITIES/CHANHASSEN MN
500 AM CST MON DEC 29 2014


NOTE: "FAIR" INDICATES FEW OR NO CLOUDS BELOW 12,000 FEET WITH NO
SIGNIFICANT WEATHER AND/OR OBSTRUCTIONS TO VISIBILITY. N/A MEANS
CURRENT SKY AND/OR WEATHER CONDITIONS ARE NOT AVAILABLE.

MNZ060>063-068>070-291200-
   Twin Cities Metro

CITY           SKY/WX    TMP DP  RH WIND       PRES   REMARKS
TWIN CITIES    CLOUDY     6  -3  66 N8        30.45R WCI  -7
ST PAUL        PTCLDY     6  -3  66 N8        30.48R WCI  -7
CRYSTAL        PTCLDY     6  -3  66 N9        30.45R WCI  -8
BLAINE         MOCLDY     5   0  78 N9        30.44R WCI  -9
LAKEVILLE      PTCLDY     5  -2  72 N7        30.43R WCI  -7
EDEN PRAIRIE   PTCLDY     6  -3  66 N5        30.44R WCI  -3
SOUTH ST PAUL  PTCLDY     7  -2  66 N7        30.46R WCI  -5
LAKE ELMO      MOCLDY     5   0  78 N3        30.44R
$$
MNZ001>005-007-008-013>017-022>024-027-028-291200-
   Northwest Minnesota

CITY           SKY/WX    TMP DP  RH WIND       PRES   REMARKS
BEMIDJI        PTCLDY   -13 -17  81 NW7       30.48R WCI -29
HALLOCK        PTCLDY   -17 -22  76 NW8       30.62R WCI -34
ROSEAU         MOCLDY   -15 -20  76 W6        30.56R WCI -29
WARROAD        MOCLDY   -18 -24  76 W3        30.53S
THIEF RVR FALL PTCLDY   -15 -22  70 NW8       30.55R WCI -32
CROOKSTON      PTCLDY   -11 -17  77 N10       30.62R WCI -30
FOSSTON        PTCLDY   -17 -20  83 CALM      30.53R
DETROIT LAKES    N/A     -8  -9  92 N10       30.50R WCI -26
MOORHEAD       CLEAR     -8  -9  92 N15       30.58R WCI -29
PARK RAPIDS    CLEAR     -9 -14  78 NW6       30.45R WCI -22
MAHNOMEN       FAIR     -10 -15  78 N8        30.52R WCI -26
$$
MNZ006-009>011-018-025>026-291200-
   North Central Minnesota

CITY           SKY/WX    TMP DP  RH WIND       PRES   REMARKS
BAUDETTE       PTCLDY   -16 -21  78 NW7       30.49R WCI -32
FLAG ISLAND    PTCLDY   -18 -24  76 NW12      30.51R WCI -40
INTL FALLS     PTCLDY   -16 -22  74 NW5       30.47R WCI -29
WASKISH        MOCLDY   -13 -17  84 W5        30.50R WCI -25
BIG FORK       PTCLDY   -11 -17  77 CALM      30.46R
LONGVILLE      CLEAR     -8 -11  84 NW5       30.46R WCI -19
GRAND RAPIDS   PTCLDY    -8 -15  71 NW8       30.42R WCI -23
CRANE LAKE     PTCLDY   -15 -18  84 CALM      30.47R
ORR            PTCLDY   -15 -18  84 NW5       30.41R WCI -27
COOK           PTCLDY   -15 -18  84 W5        30.43R WCI -27
WALKER         FAIR     -11 -15  80 NW5       30.46S WCI -22
$$
MNZ012-019>021-037-291200-
   Northeast Minnesota

CITY           SKY/WX    TMP DP  RH WIND       PRES   REMARKS
DULUTH         CLEAR     -7 -13  75 NW10      30.38R WCI -25
ELY            PTCLDY   -17 -20  83 W3        30.39R
HIBBING        FAIR      -9 -16  71 NW8       30.42R WCI -25
EVELETH        LGT SNOW  -8 -13  77 NW6       30.41S WCI -21
DULUTH HARBOR  CLEAR      1  -8  66 CALM      30.48S
TWO HARBORS    CLEAR     -4 -11  71 NW7       30.38R WCI -18
SILVER BAY     PTCLDY    -6 -13  71 NW6       30.37S WCI -18
GRAND MARAIS     N/A     -4 -14  62 VRB3      30.41R
G MARAIS ARPRT PTCLDY   -13 -20  70 NW10      30.25R WCI -32
$$
MNZ029>031-032-039>041-046>048-054>057-064-291200-
   West Central Minnesota

CITY           SKY/WX    TMP DP  RH WIND       PRES   REMARKS
FERGUS FALLS   CLEAR     -6 -11  77 N8        30.56R WCI -21
WHEATON        CLEAR     -6 -11  77 NW15G21   30.55S WCI -27
MORRIS         CLEAR     -2  -8  78 NW15      30.48R WCI -22
ALEXANDRIA     CLEAR      0  -6  76 N7        30.44R WCI -13
ELBOW LAKE     FAIR      -4  -8  82 N12       30.49R WCI -22
WADENA         CLEAR     -6  -9  84 NW6       30.46S WCI -18
GLENWOOD       CLEAR      0  -6  78 N9        30.44S WCI -16
APPLETON       PTCLDY     0  -6  78 N13       30.50R WCI -18
BENSON         PTCLDY     0  -4  85 N7        30.47R WCI -13
ORTONVILLE     PTCLDY    -2  -9  71 N13       30.51R WCI -21
MADISON        PTCLDY     3  -2  78 N15       30.50R WCI -15
WILLMAR        FAIR       7  -2  66 N9        30.46R WCI  -7
$$
MNZ033>034-036-042>043-049>051-058-059-291200-
   Central Minnesota

CITY           SKY/WX    TMP DP  RH WIND       PRES   REMARKS
ST CLOUD       CLEAR      4  -4  69 N5        30.45R WCI  -5
SAUK CENTRE    FAIR      -1  -5  81 N6        30.45S WCI -13
PAYNESVILLE    PTCLDY     0  -5  81 NW7       30.45R WCI -13
AITKIN         CLEAR     -2  -9  71 NW5       30.44R WCI -12
PINE RIVER     CLEAR     -8 -11  84 NW3       30.48R
BRAINERD       CLEAR     -3  -7  82 NW8       30.46R WCI -18
STAPLES        CLEAR     -6  -9  84 N8        30.46S WCI -21
LONG PRAIRIE   FAIR       0  -6  78 NW7       30.44S WCI -13
LITTLE FALLS   CLEAR      0  -6  78 NW5       30.47R WCI -10
LITCHFIELD     PTCLDY     5   0  78 N7        30.45R WCI  -7
BUFFALO        PTCLDY     5  -2  73 N5        30.46R WCI  -4
MAPLE LAKE     PTCLDY     5   0  77 N6        30.45R WCI  -5
$$
MNZ037-044-045-052-053-291200-
   East Central Minnesota

CITY           SKY/WX    TMP DP  RH WIND       PRES   REMARKS
PRINCETON      PTCLDY     3  -2  78 N7        30.44S WCI  -9
MORA           CLEAR      0  -6  78 VRB3      30.46R
CAMBRIDGE      PTCLDY     3  -6  66 N6        30.44R WCI  -8
RUSH CITY      MOCLDY     1  -5  78 N6        30.45S WCI -11
MOOSE LAKE     CLEAR     -2  -9  71 N6        30.43R WCI -14
CLOQUET        CLEAR     -6 -11  77 NW10      30.40S WCI -23
MCGREGOR       CLEAR     -2  -6  84 NW6       30.44S WCI -14
$$
MNZ071>073-080-081-089-090-097-098-291200-
   Southwest Minnesota

CITY           SKY/WX    TMP DP  RH WIND       PRES   REMARKS
MONTEVIDEO     MOCLDY     1  -2  85 N10       30.49R WCI -14
GRANITE FALLS  CLOUDY     7   2  80 NW9       30.48R WCI  -7
CANBY          PTCLDY     1  -4  81 N13       30.49R WCI -17
MARSHALL       MOCLDY     3  -2  78 N15       30.44R WCI -15
REDWOOD FALLS  MOCLDY     9   1  70 N5        30.45R WCI   1
OLIVIA         MOCLDY     9   3  78 N7        30.45R WCI  -3
PIPESTONE      CLOUDY     5   1  85 NE14      30.37R WCI -12
WINDOM         MOCLDY     9   3  78 N12       30.38R WCI  -6
WORTHINGTON    CLOUDY    10 -31  13 N15       30.36R WCI  -6
JACKSON        CLOUDY    12   7  79 N10       30.36R WCI  -1
TRACY          PTCLDY     6   3  87 N13G18    30.42R WCI -10
SLAYTON        MOCLDY     5   2  87 N16       30.38R FOG     WCI -13
$$
MNZ065>067-074>077-082>085-091>093-291200-
   South Central Minnesota

CITY           SKY/WX    TMP DP  RH WIND       PRES   REMARKS
MANKATO        MOCLDY    10   1  67 N9        30.40S WCI  -2
NEW ULM        MOCLDY     9   0  66 N5        30.43R WCI   0
ST JAMES       MOCLDY    12   5  73 N8        30.41S WCI   1
FAIRMONT       CLOUDY    12   7  79 N12       30.37R WCI  -2
GLENCOE        MOCLDY     6   2  83 N3        30.44R
FARIBAULT      CLOUDY     9   0  66 N6        30.40S WCI  -1
OWATONNA       MOCLDY     9   0  66 N8        30.38S WCI  -4
ALBERT LEA     MOCLDY    10   5  79 N9        30.35S WCI  -2
$$
MNZ078>079-086>088-094>096-291200-
   Southeast Minnesota

CITY           SKY/WX    TMP DP  RH WIND       PRES   REMARKS
ROCHESTER      CLOUDY    10   3  73 NE9       30.35S WCI  -3
RED WING       PTCLDY     7  -2  66 CALM      30.43R
STANTON        MOCLDY     7   0  72 N6        30.41S WCI  -3
DODGE CENTER   MOCLDY     9   3  78 N9        30.35S WCI  -5
WINONA         MOCLDY    14  10  85 CALM      30.42S
AUSTIN         MOCLDY    10   5  79 N8        30.35S WCI  -1
PRESTON        PTCLDY    10   5  82 N7        30.34S WCI  -2
$$
ABBREVIATIONS USED IN REMARKS
   TC - TEMPERATURES IN CELSIUS
  WCI - WIND CHILL INDEX
   HX - HEAT INDEX
  VSB - VISIBILITY
$$


USA.gov is the U.S. government's official web portal to all federal, state and local government web resources and services.